User: anonymous   Login
Location: Newark
(46.3567°N, 6.1428°E)
Time: 13:12:17
(UTC+00:00)
Language:

First-Move - Orbit

View from above orbital plane
View from above orbital plane
View from above satellite
View from above satellite

Ground track
Ground track

The orbit data is extracted from the following two-line orbital elements,

1 39439U 13066Z   20295.27046796 +.00000481 +00000-0 +64626-4 0  9994
2 39439 097.5804 287.2584 0063929 223.4047 136.2124 14.82251939372511
Epoch (UTC): 21 October 2020 06:29:28
Eccentricity: 0.0063929
inclination: 97.5804°
perigee height: 577 km
apogee height: 667 km
right ascension of ascending node: 287.2584°
argument of perigee: 223.4047°
revolutions per day: 14.82251939
mean anomaly at epoch: 136.2124°
orbit number at epoch: 37251

The dashed part of the orbit path shows where the satellite is in the earth's shadow,  

DLR